Weather History for KEUL - November, 2012

Change the Weather History Date:

Wednesday, November 21, 2012

  Actual Average (KBOI) Record (KBOI)
Temperature  
Mean Temperature 45 °F 38 °F  
Max Temperature 57 °F 45 °F 67 °F (2006)
Min Temperature 30 °F 30 °F -2 °F (1985)
Degree Days  
Heating Degree Days 20 27  
Month to date heating degree days 484  
Since 1 July heating degree days 990  
Cooling Degree Days 0 0  
Month to date cooling degree days 0  
Year to date cooling degree days 942  
Moisture  
Dew Point 31 °F    
Average Humidity 52    
Maximum Humidity 71    
Minimum Humidity 41    
Precipitation  
Precipitation 0.00 in 0.05 in 0.68 in (1921)
Month to date precipitation 0.91  
Year to date precipitation 9.74  
Snow  
Snow 0.00 in 0.10 in 3.40 in (1977)
Month to date snowfall 1.3  
Since 1 July snowfall 1.4  
Snow Depth -    
Sea Level Pressure  
Sea Level Pressure 29.96 in    
Wind  
Wind Speed 13 mph (WSW)    
Max Wind Speed 22 mph    
Max Gust Speed 36 mph    
Visibility 10 miles    
Events      
T = Trace of Precipitation, MM = Missing Value Source: NWS Daily Summary

Daily Weather History Graph

Daily Weather History Graph

Search for Another Location

Airport or City:

Trip Planner

Search our weather history database for the weather conditions in past years. The results will help you decide how hot, cold, wet, or windy it might be!

Date:

Astronomy

Nov. 21, 2012 Rise Set
Actual Time 7:48 AM MST 5:15 PM MST
Civil Twilight 7:17 AM MST 5:47 PM MST
Nautical Twilight 6:42 AM MST 6:22 PM MST
Astronomical Twilight 6:08 AM MST 6:56 PM MST
Moon 1:45 PM MST (11/21) 1:01 AM MST (11/21)
Length of Visible Light 10h 29m
Length of Day
9h 26m
Waxing Gibbous, 62% of the Moon is Illuminated
Nov 21
Waxing Gibbous
Nov 28
Full
Dec 6
Last Quarter
Dec 13
New
Dec 19
First Quarter

Hourly Weather History & Observations

Time (MST) Temp. Windchill Dew Point Humidity Pressure Visibility Wind Dir Wind Speed Gust Speed Precip Events Conditions
12:15 AM 57.2 °F - 35.6 °F 44% 29.80 in 10.0 mi South 18.4 mph - N/A   Overcast
12:35 AM 57.2 °F - 35.6 °F 44% 29.78 in 10.0 mi SSE 18.4 mph 24.2 mph N/A   Mostly Cloudy
12:55 AM 55.4 °F - 35.6 °F 47% 29.77 in 10.0 mi SSE 15.0 mph 21.9 mph N/A   Scattered Clouds
1:15 AM 57.2 °F - 35.6 °F 44% 29.76 in 10.0 mi SSE 16.1 mph - N/A   Overcast
1:35 AM 55.4 °F - 35.6 °F 47% 29.76 in 10.0 mi SE 16.1 mph - N/A   Mostly Cloudy
1:55 AM 53.6 °F - 35.6 °F 51% 29.76 in 10.0 mi SSE 15.0 mph 20.7 mph N/A   Scattered Clouds
2:15 AM 55.4 °F - 35.6 °F 47% 29.75 in 10.0 mi SSE 16.1 mph 23.0 mph N/A   Mostly Cloudy
2:35 AM 55.4 °F - 35.6 °F 47% 29.75 in 10.0 mi South 15.0 mph 19.6 mph N/A   Overcast
2:55 AM 55.4 °F - 35.6 °F 47% 29.75 in 10.0 mi SSE 13.8 mph 20.7 mph N/A   Scattered Clouds
3:15 AM 55.4 °F - 35.6 °F 47% 29.76 in 10.0 mi SSE 15.0 mph - N/A   Clear
3:35 AM 53.6 °F - 33.8 °F 47% 29.76 in 10.0 mi South 11.5 mph - N/A   Clear
3:55 AM 55.4 °F - 33.8 °F 44% 29.75 in 10.0 mi South 13.8 mph 19.6 mph N/A   Partly Cloudy
4:15 AM 55.4 °F - 33.8 °F 44% 29.76 in 10.0 mi South 11.5 mph 16.1 mph N/A   Partly Cloudy
4:35 AM 55.4 °F - 33.8 °F 44% 29.76 in 10.0 mi South 10.4 mph - N/A   Partly Cloudy
4:55 AM 53.6 °F - 33.8 °F 47% 29.77 in 10.0 mi SW 5.8 mph - N/A   Mostly Cloudy
5:15 AM 53.6 °F - 33.8 °F 47% 29.77 in 10.0 mi SW 6.9 mph - N/A   Mostly Cloudy
5:35 AM 51.8 °F - 33.8 °F 50% 29.78 in 10.0 mi West 9.2 mph - N/A   Scattered Clouds
6:15 AM 48.2 °F - 35.6 °F 62% 29.77 in 10.0 mi NE 3.5 mph - N/A   Clear
6:35 AM 48.2 °F - 35.6 °F 62% 29.78 in 10.0 mi ENE 4.6 mph - N/A   Scattered Clouds
6:55 AM 46.4 °F 45.2 °F 35.6 °F 66% 29.78 in 10.0 mi SE 3.5 mph - N/A   Mostly Cloudy
7:15 AM 53.6 °F - 33.8 °F 47% 29.79 in 10.0 mi SSW 10.4 mph - N/A   Overcast
7:35 AM 51.8 °F - 33.8 °F 50% 29.79 in 10.0 mi South 13.8 mph - N/A   Scattered Clouds
7:55 AM 57.2 °F - 33.8 °F 41% 29.81 in 10.0 mi SSW 21.9 mph 29.9 mph N/A   Clear
8:15 AM 55.4 °F - 33.8 °F 44% 29.84 in 10.0 mi SW 20.7 mph 35.7 mph N/A   Mostly Cloudy
8:35 AM 48.2 °F - 37.4 °F 66% 29.86 in 10.0 mi NNW 13.8 mph - N/A   Mostly Cloudy
8:55 AM 46.4 °F 40.7 °F 35.6 °F 66% 29.87 in 10.0 mi NW 12.7 mph - N/A   Overcast
9:15 AM 44.6 °F 43.1 °F 35.6 °F 71% 29.88 in 10.0 mi WSW 3.5 mph - N/A   Mostly Cloudy
9:35 AM 46.4 °F 41.9 °F 35.6 °F 66% 29.91 in 10.0 mi NNW 9.2 mph - N/A   Mostly Cloudy
9:55 AM 44.6 °F 40.2 °F 35.6 °F 71% 29.93 in 10.0 mi NE 8.1 mph - N/A   Overcast
10:15 AM 44.6 °F 43.1 °F 35.6 °F 71% 29.94 in 10.0 mi ENE 3.5 mph - N/A   Overcast
10:35 AM 46.4 °F - 37.4 °F 71% 29.94 in 10.0 mi Calm Calm - N/A   Scattered Clouds
10:55 AM 51.8 °F - 37.4 °F 58% 29.95 in 10.0 mi WSW 12.7 mph 18.4 mph N/A   Scattered Clouds
11:15 AM 51.8 °F - 35.6 °F 54% 29.96 in 10.0 mi WNW 16.1 mph 19.6 mph N/A   Mostly Cloudy
11:35 AM 50.0 °F - 33.8 °F 54% 29.98 in 10.0 mi West 20.7 mph 26.5 mph N/A   Mostly Cloudy
11:55 AM 48.2 °F - 33.8 °F 58% 29.98 in 10.0 mi West 15.0 mph - N/A   Overcast
12:15 PM 48.2 °F - 30.2 °F 50% 29.98 in 10.0 mi West 16.1 mph 20.7 mph N/A   Mostly Cloudy
12:35 PM 48.2 °F - 32.0 °F 54% 29.99 in 10.0 mi West 9.2 mph - N/A   Mostly Cloudy
12:55 PM 50.0 °F - 33.8 °F 54% 29.99 in 10.0 mi West 16.1 mph - N/A   Overcast
1:15 PM 51.8 °F - 30.2 °F 44% 30.00 in 10.0 mi West 12.7 mph - N/A   Overcast
1:35 PM 50.0 °F - 28.4 °F 43% 29.99 in 10.0 mi West 11.5 mph 17.3 mph N/A   Overcast
1:55 PM 51.8 °F - 28.4 °F 41% 30.00 in 10.0 mi West 15.0 mph 19.6 mph N/A   Overcast
2:15 PM 51.8 °F - 28.4 °F 41% 30.00 in 10.0 mi West 15.0 mph 23.0 mph N/A   Overcast
2:35 PM 51.8 °F - 28.4 °F 41% 30.01 in 10.0 mi WNW 16.1 mph 21.9 mph N/A   Mostly Cloudy
2:55 PM 51.8 °F - 28.4 °F 41% 30.02 in 10.0 mi WNW 19.6 mph 23.0 mph N/A   Mostly Cloudy
3:15 PM 50.0 °F - 30.2 °F 47% 30.02 in 10.0 mi WNW 17.3 mph - N/A   Scattered Clouds
3:35 PM 50.0 °F - 30.2 °F 47% 30.04 in 10.0 mi WNW 15.0 mph - N/A   Mostly Cloudy
3:55 PM 48.2 °F - 30.2 °F 50% 30.06 in 10.0 mi West 13.8 mph - N/A   Overcast
4:15 PM 48.2 °F - 30.2 °F 50% 30.06 in 10.0 mi West 13.8 mph - N/A   Mostly Cloudy
4:35 PM 48.2 °F - 28.4 °F 46% 30.07 in 10.0 mi West 12.7 mph 18.4 mph N/A   Partly Cloudy
4:55 PM 46.4 °F 40.7 °F 26.6 °F 46% 30.08 in 10.0 mi West 12.7 mph - N/A   Clear
5:15 PM 46.4 °F 41.9 °F 28.4 °F 50% 30.08 in 10.0 mi West 9.2 mph - N/A   Clear
5:35 PM 44.6 °F 41.4 °F 26.6 °F 49% 30.10 in 10.0 mi WNW 5.8 mph - N/A   Clear
5:55 PM 42.8 °F 38.6 °F 26.6 °F 53% 30.10 in 10.0 mi WSW 6.9 mph - N/A   Clear
6:15 PM 42.8 °F 38.6 °F 26.6 °F 53% 30.11 in 10.0 mi West 6.9 mph - N/A   Clear
6:35 PM 42.8 °F 40.1 °F 24.8 °F 49% 30.12 in 10.0 mi WSW 4.6 mph - N/A   Clear
7:15 PM 42.8 °F 37.5 °F 24.8 °F 49% 30.13 in 10.0 mi West 9.2 mph - N/A   Clear
7:35 PM 42.8 °F 36.6 °F 23.0 °F 46% 30.14 in 10.0 mi West 11.5 mph - N/A   Clear
8:15 PM 39.2 °F 33.6 °F 23.0 °F 52% 30.17 in 10.0 mi West 8.1 mph - N/A   Clear
8:35 PM 39.2 °F 34.2 °F 23.0 °F 52% 30.18 in 10.0 mi West 6.9 mph - N/A   Clear
8:55 PM 39.2 °F 35.0 °F 23.0 °F 52% 30.18 in 10.0 mi West 5.8 mph - N/A   Scattered Clouds
9:15 PM 37.4 °F 32.8 °F 23.0 °F 56% 30.19 in 10.0 mi West 5.8 mph - N/A   Mostly Cloudy
9:35 PM 37.4 °F 32.8 °F 23.0 °F 56% 30.20 in 10.0 mi WSW 5.8 mph - N/A   Partly Cloudy
9:55 PM 35.6 °F - 21.2 °F 56% 30.21 in 10.0 mi Calm Calm - N/A   Clear
10:15 PM 33.8 °F 28.6 °F 21.2 °F 60% 30.22 in 10.0 mi NNW 5.8 mph - N/A   Partly Cloudy
10:35 PM 37.4 °F 32.8 °F 21.2 °F 52% 30.22 in 10.0 mi NW 5.8 mph - N/A   Clear
10:55 PM 37.4 °F 31.4 °F 21.2 °F 52% 30.23 in 10.0 mi West 8.1 mph - N/A   Scattered Clouds
11:15 PM 39.2 °F 37.0 °F 23.0 °F 52% 30.24 in 10.0 mi West 3.5 mph - N/A   Scattered Clouds
11:35 PM 33.8 °F 30.8 °F 21.2 °F 60% 30.25 in 10.0 mi East 3.5 mph - N/A   Clear
11:55 PM 30.2 °F 26.7 °F 21.2 °F 69% 30.26 in 10.0 mi North 3.5 mph - N/A   Clear